When you browse on this site, cookies collect data to enhance your experience and personalize the content and advertising you see.
Visit our Privacy Policy to learn more. By continuing to use the site, you agree to this use of cookies and data.
  • în România
  • Lista ţărilor
  • Pe 7 zile
  • Temperatura apei
  • Hartă satelitară
  • Meteo pe hartă
  • Widget-uri
  • user-avatar
    Intrare

    Meteo pe oră la Galway

    Astăzi, 21 Noiembrie, Miercuri

    Timp Temperatura Precipitaţii Vânt Presiune Umiditate
    00:00 +3°C° 0 mm 5 m/s 757 mmHg 86%
    01:00 +3°C° 0 mm 5 m/s 756 mmHg 87%
    02:00 +3°C° 0 mm 5 m/s 756 mmHg 89%
    03:00 +4°C° 0.2 mm 4 m/s 755 mmHg 90%
    04:00 +4°C° 0.2 mm 4 m/s 755 mmHg 91%
    05:00 +4°C° 0.2 mm 4 m/s 755 mmHg 92%
    06:00 +4°C° 0.3 mm 4 m/s 754 mmHg 92%
    07:00 +4°C° 0.3 mm 3 m/s 754 mmHg 92%
    08:00 +4°C° 0.3 mm 3 m/s 754 mmHg 92%
    09:00 +5°C° 0.3 mm 3 m/s 753 mmHg 91%
    10:00 +5°C° 0.3 mm 3 m/s 753 mmHg 89%
    11:00 +5°C° 0.3 mm 3 m/s 753 mmHg 88%
    12:00 +5°C° 0.6 mm 3 m/s 753 mmHg 88%
    13:00 +5°C° 0.6 mm 3 m/s 753 mmHg 88%
    14:00 +5°C° 0.6 mm 3 m/s 753 mmHg 88%
    15:00 +4°C° 0.4 mm 4 m/s 754 mmHg 88%
    16:00 +3°C° 0.4 mm 5 m/s 754 mmHg 89%
    17:00 +3°C° 0.4 mm 5 m/s 755 mmHg 89%
    18:00 +2°C° 0.1 mm 5 m/s 756 mmHg 89%
    19:00 +2°C° 0.1 mm 5 m/s 756 mmHg 89%
    20:00 +2°C° 0.1 mm 5 m/s 757 mmHg 90%
    21:00 +2°C° 0 mm 5 m/s 757 mmHg 90%
    22:00 +2°C° 0 mm 5 m/s 757 mmHg 90%
    23:00 +2°C° 0 mm 5 m/s 758 mmHg 90%

    Mâine, 22 Noiembrie, Joi

    Timp Temperatura Precipitaţii Vânt Presiune Umiditate
    00:00 +3°C° 0.2 mm 5 m/s 758 mmHg 90%
    01:00 +3°C° 0.2 mm 5 m/s 758 mmHg 90%
    02:00 +3°C° 0.2 mm 5 m/s 758 mmHg 90%
    03:00 +4°C° 0.5 mm 6 m/s 758 mmHg 89%
    04:00 +4°C° 0.5 mm 6 m/s 758 mmHg 89%
    05:00 +5°C° 0.5 mm 7 m/s 758 mmHg 89%
    06:00 +4°C° 0.1 mm 7 m/s 759 mmHg 89%
    07:00 +4°C° 0.1 mm 7 m/s 759 mmHg 88%
    08:00 +4°C° 0.1 mm 6 m/s 759 mmHg 88%
    09:00 +4°C° 0 mm 7 m/s 760 mmHg 86%
    10:00 +4°C° 0 mm 7 m/s 760 mmHg 84%
    11:00 +4°C° 0 mm 7 m/s 760 mmHg 82%
    12:00 +4°C° 0 mm 7 m/s 760 mmHg 81%
    13:00 +4°C° 0 mm 7 m/s 759 mmHg 79%
    14:00 +4°C° 0 mm 6 m/s 759 mmHg 77%
    15:00 +4°C° 0 mm 6 m/s 759 mmHg 81%
    16:00 +3°C° 0 mm 6 m/s 759 mmHg 84%
    17:00 +2°C° 0 mm 5 m/s 759 mmHg 88%
    18:00 +2°C° 0 mm 5 m/s 759 mmHg 89%
    19:00 +2°C° 0 mm 5 m/s 759 mmHg 91%
    20:00 +2°C° 0 mm 5 m/s 759 mmHg 92%
    21:00 +3°C° 0 mm 4 m/s 759 mmHg 93%
    22:00 +3°C° 0 mm 4 m/s 759 mmHg 93%
    23:00 +1°C° 0 mm 4 m/s 759 mmHg 94%

    Poimâine, 23 Noiembrie, Vineri

    Timp Temperatura Precipitaţii Vânt Presiune Umiditate
    00:00 +1°C° 0 mm 4 m/s 759 mmHg 94%
    01:00 +2°C° 0 mm 3 m/s 758 mmHg 95%
    02:00 +2°C° 0 mm 3 m/s 758 mmHg 95%
    03:00 +1°C° 0 mm 4 m/s 758 mmHg 95%
    04:00 +1°C° 0 mm 4 m/s 757 mmHg 95%
    05:00 +1°C° 0 mm 4 m/s 757 mmHg 94%
    06:00 +1°C° 0 mm 4 m/s 757 mmHg 94%
    07:00 +1°C° 0 mm 4 m/s 757 mmHg 93%
    08:00 +1°C° 0 mm 4 m/s 757 mmHg 92%
    09:00 +2°C° 0 mm 5 m/s 756 mmHg 88%
    10:00 +3°C° 0 mm 5 m/s 756 mmHg 84%
    11:00 +5°C° 0 mm 6 m/s 756 mmHg 81%
    12:00 +6°C° 0 mm 5 m/s 755 mmHg 82%
    13:00 +6°C° 0 mm 5 m/s 755 mmHg 83%
    14:00 +6°C° 0 mm 5 m/s 755 mmHg 84%
    15:00 +6°C° 0.3 mm 5 m/s 755 mmHg 87%
    16:00 +5°C° 0.3 mm 5 m/s 755 mmHg 90%
    17:00 +5°C° 0.3 mm 5 m/s 755 mmHg 92%
    18:00 +5°C° 0.2 mm 5 m/s 755 mmHg 93%
    19:00 +5°C° 0.2 mm 5 m/s 755 mmHg 94%
    20:00 +6°C° 0.2 mm 4 m/s 755 mmHg 94%
    21:00 +5°C° 0 mm 4 m/s 755 mmHg 95%
    22:00 +5°C° 0 mm 3 m/s 755 mmHg 96%
    23:00 +5°C° 0 mm 3 m/s 755 mmHg 96%

    24 Noiembrie, Sâmbătă

    Timp Temperatura Precipitaţii Vânt Presiune Umiditate
    00:00 +5°C° 0.1 mm 3 m/s 756 mmHg 96%
    01:00 +5°C° 0.1 mm 3 m/s 756 mmHg 96%
    02:00 +7°C° 0.1 mm 2 m/s 756 mmHg 97%
    03:00 +7°C° 0.1 mm 3 m/s 756 mmHg 96%
    04:00 +7°C° 0.1 mm 3 m/s 756 mmHg 95%
    05:00 +6°C° 0.1 mm 4 m/s 756 mmHg 95%
    06:00 +6°C° 0 mm 4 m/s 756 mmHg 94%
    07:00 +6°C° 0 mm 4 m/s 757 mmHg 94%
    08:00 +5°C° 0 mm 4 m/s 757 mmHg 94%
    09:00 +6°C° 0 mm 4 m/s 757 mmHg 91%
    10:00 +7°C° 0 mm 4 m/s 758 mmHg 88%
    11:00 +8°C° 0 mm 5 m/s 758 mmHg 86%
    12:00 +8°C° 0 mm 5 m/s 758 mmHg 86%
    13:00 +8°C° 0 mm 4 m/s 758 mmHg 86%
    14:00 +8°C° 0 mm 4 m/s 758 mmHg 86%
    15:00 +7°C° 0 mm 4 m/s 758 mmHg 88%
    16:00 +6°C° 0 mm 4 m/s 758 mmHg 91%
    17:00 +5°C° 0 mm 4 m/s 758 mmHg 93%
    18:00 +5°C° 0 mm 4 m/s 758 mmHg 94%
    19:00 +5°C° 0 mm 4 m/s 758 mmHg 94%
    20:00 +5°C° 0 mm 4 m/s 758 mmHg 95%
    21:00 +4°C° 0 mm 4 m/s 758 mmHg 95%
    22:00 +4°C° 0 mm 4 m/s 758 mmHg 96%
    23:00 +4°C° 0 mm 4 m/s 758 mmHg 96%

    25 Noiembrie, Duminică

    Timp Temperatura Precipitaţii Vânt Presiune Umiditate
    00:00 +4°C° 0 mm 4 m/s 758 mmHg 96%
    01:00 +4°C° 0 mm 4 m/s 758 mmHg 96%
    02:00 +4°C° 0 mm 4 m/s 757 mmHg 96%
    03:00 +4°C° 0 mm 4 m/s 757 mmHg 96%
    04:00 +4°C° 0 mm 4 m/s 757 mmHg 96%
    05:00 +4°C° 0 mm 4 m/s 757 mmHg 96%
    06:00 +4°C° 0 mm 4 m/s 757 mmHg 95%
    07:00 +4°C° 0 mm 4 m/s 758 mmHg 94%
    08:00 +4°C° 0 mm 4 m/s 758 mmHg 94%
    09:00 +5°C° 0 mm 5 m/s 757 mmHg 91%
    10:00 +6°C° 0 mm 5 m/s 757 mmHg 88%
    11:00 +5°C° 0 mm 6 m/s 757 mmHg 85%
    12:00 +5°C° 0 mm 6 m/s 756 mmHg 84%
    13:00 +6°C° 0 mm 5 m/s 756 mmHg 83%
    14:00 +6°C° 0 mm 5 m/s 755 mmHg 83%
    15:00 +6°C° 0 mm 5 m/s 755 mmHg 85%
    16:00 +5°C° 0 mm 5 m/s 755 mmHg 87%
    17:00 +5°C° 0 mm 5 m/s 755 mmHg 89%
    18:00 +5°C° 0 mm 5 m/s 754 mmHg 90%
    19:00 +5°C° 0 mm 5 m/s 754 mmHg 91%
    20:00 +4°C° 0 mm 6 m/s 754 mmHg 91%
    21:00 +4°C° 0 mm 6 m/s 753 mmHg 91%
    22:00 +4°C° 0 mm 6 m/s 753 mmHg 90%
    23:00 +4°C° 0 mm 6 m/s 753 mmHg 90%

    26 Noiembrie, Luni

    Timp Temperatura Precipitaţii Vânt Presiune Umiditate
    00:00 +4°C° 0 mm 6 m/s 753 mmHg 90%
    01:00 +4°C° 0 mm 6 m/s 753 mmHg 89%
    02:00 +4°C° 0 mm 6 m/s 752 mmHg 89%
    03:00 +3°C° 0 mm 6 m/s 752 mmHg 90%
    04:00 +3°C° 0 mm 6 m/s 752 mmHg 90%
    05:00 +2°C° 0 mm 6 m/s 752 mmHg 90%
    06:00 +3°C° 0 mm 6 m/s 752 mmHg 90%
    07:00 +3°C° 0 mm 6 m/s 752 mmHg 89%
    08:00 +3°C° 0 mm 6 m/s 752 mmHg 89%
    09:00 +4°C° 0.2 mm 6 m/s 752 mmHg 89%
    10:00 +4°C° 0.2 mm 6 m/s 751 mmHg 88%
    11:00 +5°C° 0.2 mm 6 m/s 751 mmHg 88%
    12:00 +5°C° 0.5 mm 6 m/s 751 mmHg 89%
    13:00 +6°C° 0.5 mm 5 m/s 751 mmHg 90%
    14:00 +6°C° 0.5 mm 5 m/s 750 mmHg 91%
    15:00 +6°C° 0.2 mm 5 m/s 750 mmHg 91%
    16:00 +6°C° 0.2 mm 5 m/s 751 mmHg 91%
    17:00 +6°C° 0.2 mm 5 m/s 751 mmHg 91%
    18:00 +6°C° 0.3 mm 5 m/s 751 mmHg 91%
    19:00 +6°C° 0.3 mm 5 m/s 752 mmHg 91%
    20:00 +6°C° 0.3 mm 5 m/s 752 mmHg 91%
    21:00 +5°C° 0.1 mm 6 m/s 752 mmHg 90%
    22:00 +5°C° 0.1 mm 6 m/s 753 mmHg 90%
    23:00 +5°C° 0.1 mm 6 m/s 753 mmHg 90%
    Arată mai mult